Location: Hormuz
(27.0871°N, 56.4580°E)
Time: 03:08:44
(UTC+04:30)

X-37B - Pass Details

Date: 24 June 2021
Orbit: 383 x 392 km, 45.0° (Epoch: 01 July)

Event Time Altitude Azimuth Distance (km) Brightness Sun altitude
Rises 20:54:51 0° 259° (W) 2,247 5.1 -14.6°
Reaches altitude 10° 20:57:14 10° 276° (W) 1,395 4.3 -15.1°
Maximum altitude 20:59:42 21° 328° (NNW) 922 3.4 -15.5°
Drops below altitude 10° 21:02:11 10° 20° (NNE) 1,397 3.6 -15.9°
Sets 21:04:34 0° 37° (NE) 2,251 4.5 -16.3°
